| time (UTC) | temp F | wind direction | speed knots | gust knots | rain 1hr in | rain 24hr in | rain mn in | humidity % | barometer mb |
| 20260503194732 | 77 | 213 | 0.0 | 0.9 | 0.00 | 0.00 | 0.00 | 52 | 1014.2 |
| 20260503194226 | 76 | 275 | 0.0 | 0.0 | 0.00 | 0.00 | 0.00 | 53 | 1014.0 |
| 20260503193723 | 77 | 44 | 0.0 | 0.9 | 0.00 | 0.00 | 0.00 | 50 | 1014.2 |
| 20260503193219 | 76 | 232 | 0.9 | 0.9 | 0.00 | 0.00 | 0.00 | 56 | 1014.3 |
| 20260503192715 | 77 | 87 | 0.9 | 1.7 | 0.00 | 0.00 | 0.00 | 51 | 1014.4 |
| 20260503192210 | 77 | 210 | 0.0 | 0.9 | 0.00 | 0.00 | 0.00 | 54 | 1014.4 |
| 20260503191707 | 76 | 230 | 0.9 | 1.7 | 0.00 | 0.00 | 0.00 | 53 | 1014.5 |
| 20260503191204 | 75 | 237 | 0.9 | 0.9 | 0.00 | 0.00 | 0.00 | 52 | 1014.3 |
| 20260503190701 | 74 | 282 | 0.9 | 1.7 | 0.00 | 0.00 | 0.00 | 53 | 1014.7 |
| 20260503190158 | 74 | 62 | 0.9 | 0.9 | 0.00 | 0.00 | 0.00 | 53 | 1014.8 |
| 20260503185655 | 73 | 201 | 0.0 | 0.9 | 0.00 | 0.00 | 0.00 | 53 | 1014.7 |
| 20260503185150 | 73 | 78 | 0.9 | 1.7 | 0.00 | 0.00 | 0.00 | 54 | 1014.6 |
| 20260503184645 | 74 | 21 | 1.7 | 1.7 | 0.00 | 0.00 | 0.00 | 53 | 1014.7 |
| 20260503184142 | 73 | 131 | 0.9 | 0.9 | 0.00 | 0.00 | 0.00 | 52 | 1014.9 |
| 20260503183638 | 74 | 330 | 0.0 | 0.9 | 0.00 | 0.00 | 0.00 | 55 | 1014.9 |
| 20260503183136 | 73 | 45 | 0.0 | 0.0 | 0.00 | 0.00 | 0.00 | 54 | 1015.2 |
| 20260503182634 | 72 | 103 | 0.0 | 0.0 | 0.00 | 0.00 | 0.00 | 54 | 1015.1 |
| 20260503182132 | 72 | 31 | 0.9 | 0.9 | 0.00 | 0.00 | 0.00 | 55 | 1015.2 |
| 20260503181629 | 71 | 94 | 0.9 | 1.7 | 0.00 | 0.00 | 0.00 | 55 | 1014.9 |
| 20260503181125 | 72 | 45 | 0.0 | 0.9 | 0.00 | 0.00 | 0.00 | 55 | 1015.2 |
| 20260503180622 | 71 | 128 | 0.0 | 0.0 | 0.00 | 0.00 | 0.00 | 56 | 1015.3 |
| 20260503180120 | 71 | 13 | 0.9 | 1.7 | 0.00 | 0.00 | 0.00 | 57 | 1015.2 |
| 20260503175617 | 71 | 134 | 0.0 | 0.9 | 0.00 | 0.00 | 0.00 | 58 | 1015.3 |
| 20260503175114 | 70 | 241 | 0.0 | 0.0 | 0.00 | 0.00 | 0.00 | 60 | 1015.4 |
| 20260503174611 | 70 | 91 | 0.0 | 0.0 | 0.00 | 0.00 | 0.00 | 62 | 1015.5 |
| 20260503174108 | 69 | 199 | 0.9 | 0.9 | 0.00 | 0.00 | 0.00 | 63 | 1015.6 |
| 20260503173602 | 69 | 249 | 0.0 | 0.0 | 0.00 | 0.00 | 0.00 | 66 | 1015.5 |
| 20260503173059 | 69 | 2 | 0.9 | 1.7 | 0.00 | 0.00 | 0.00 | 61 | 1015.5 |
| 20260503172556 | 68 | 327 | 0.9 | 0.9 | 0.00 | 0.00 | 0.00 | 62 | 1015.9 |
| 20260503172054 | 67 | 67 | 0.0 | 0.9 | 0.00 | 0.00 | 0.00 | 64 | 1015.8 |
| 20260503171550 | 68 | 128 | 0.9 | 0.9 | 0.00 | 0.00 | 0.00 | 62 | 1015.8 |
| 20260503171048 | 68 | 355 | 0.0 | 0.0 | 0.00 | 0.00 | 0.00 | 63 | 1016.1 |
| 20260503170544 | 67 | 238 | 0.0 | 0.9 | 0.00 | 0.00 | 0.00 | 65 | 1016.0 |
| 20260503150936 | 62 | 196 | 0.0 | 0.0 | 0.00 | 0.00 | 0.00 | 78 | 1016.3 |
| 20260503150433 | 63 | 66 | 0.0 | 0.0 | 0.00 | 0.00 | 0.00 | 78 | 1016.5 |
| 20260503131326 | 53 | 282 | 0.0 | 0.0 | 0.00 | 0.00 | 0.00 | 96 | 1016.0 |
| 20260503130823 | 52 | 240 | 0.0 | 0.0 | 0.00 | 0.00 | 0.00 | 96 | 1015.9 |
| 20260503130321 | 52 | 253 | 0.0 | 0.0 | 0.00 | 0.00 | 0.00 | 97 | 1015.7 |
| 20260503110714 | 52 | 267 | 0.0 | 0.0 | 0.00 | 0.00 | 0.00 | 91 | 1016.2 |
| 20260503110212 | 52 | 269 | 0.0 | 0.0 | 0.00 | 0.00 | 0.00 | 91 | 1016.2 |
| 20260503100138 | 53 | 240 | 0.0 | 0.0 | 0.00 | 0.00 | 0.00 | 86 | 1015.9 |
| 20260503081532 | 53 | 260 | 0.0 | 0.0 | 0.00 | 0.00 | 0.00 | 84 | 1016.1 |
| 20260503081030 | 53 | 265 | 0.0 | 0.0 | 0.00 | 0.00 | 0.00 | 84 | 1016.1 |
| 20260503080526 | 53 | 265 | 0.0 | 0.0 | 0.00 | 0.00 | 0.00 | 83 | 1016.1 |
| 20260503072500 | 54 | 265 | 0.0 | 0.0 | 0.00 | 0.00 | 0.00 | 79 | 1015.8 |
| 20260503071956 | 54 | 266 | 0.0 | 0.0 | 0.00 | 0.00 | 0.00 | 79 | 1015.9 |
| 20260503071453 | 55 | 266 | 0.0 | 0.0 | 0.00 | 0.00 | 0.00 | 78 | 1015.7 |
| 20260503070949 | 55 | 272 | 0.0 | 0.0 | 0.00 | 0.00 | 0.00 | 77 | 1015.7 |
| 20260503070447 | 56 | 268 | 0.0 | 0.0 | 0.00 | 0.00 | 0.00 | 75 | 1015.9 |
| 20260503054900 | 63 | 241 | 0.0 | 0.0 | 0.00 | 0.00 | 0.00 | 58 | 1015.4 |
| 20260503054356 | 63 | 229 | 0.0 | 0.0 | 0.00 | 0.00 | 0.00 | 58 | 1015.1 |
| 20260503053854 | 62 | 250 | 0.0 | 0.0 | 0.00 | 0.00 | 0.00 | 59 | 1015.4 |
| 20260503053352 | 62 | 241 | 0.0 | 0.0 | 0.00 | 0.00 | 0.00 | 59 | 1015.4 |
| 20260503052848 | 63 | 254 | 0.0 | 0.0 | 0.00 | 0.00 | 0.00 | 58 | 1015.5 |
| 20260503052345 | 63 | 245 | 0.0 | 0.0 | 0.00 | 0.00 | 0.00 | 59 | 1015.6 |
| 20260503051841 | 63 | 235 | 0.0 | 0.0 | 0.00 | 0.00 | 0.00 | 57 | 1015.4 |
| 20260503051338 | 63 | 232 | 0.0 | 0.0 | 0.00 | 0.00 | 0.00 | 57 | 1015.3 |
| 20260503050835 | 62 | 240 | 0.0 | 0.9 | 0.00 | 0.00 | 0.00 | 58 | 1015.3 |
| 20260503050331 | 62 | 245 | 0.0 | 0.9 | 0.00 | 0.00 | 0.00 | 59 | 1015.3 |
| 20260503045829 | 62 | 247 | 0.0 | 0.0 | 0.00 | 0.00 | 0.00 | 60 | 1015.2 |
| 20260503045326 | 62 | 247 | 0.0 | 0.0 | 0.00 | 0.00 | 0.00 | 61 | 1015.5 |
| 20260503044822 | 62 | 247 | 0.0 | 0.0 | 0.00 | 0.00 | 0.00 | 60 | 1015.4 |
| 20260503044319 | 63 | 244 | 0.0 | 0.0 | 0.00 | 0.00 | 0.00 | 57 | 1015.3 |
| 20260503043817 | 64 | 241 | 0.0 | 0.0 | 0.00 | 0.00 | 0.00 | 56 | 1015.2 |
| 20260503043314 | 64 | 248 | 0.0 | 0.0 | 0.00 | 0.00 | 0.00 | 55 | 1015.1 |
| 20260503042809 | 64 | 248 | 0.0 | 0.9 | 0.00 | 0.00 | 0.00 | 55 | 1015.0 |
| 20260503042307 | 65 | 249 | 0.9 | 0.9 | 0.00 | 0.00 | 0.00 | 54 | 1015.2 |
| 20260503041802 | 65 | 240 | 0.9 | 0.9 | 0.00 | 0.00 | 0.00 | 54 | 1015.2 |
| 20260503041300 | 64 | 245 | 0.0 | 0.0 | 0.00 | 0.00 | 0.00 | 55 | 1014.9 |
| 20260503040758 | 64 | 253 | 0.0 | 0.0 | 0.00 | 0.00 | 0.00 | 55 | 1015.0 |
| 20260503040255 | 65 | 248 | 0.0 | 0.0 | 0.00 | 0.00 | 0.00 | 55 | 1014.9 |
| 20260503035751 | 65 | 247 | 0.0 | 0.0 | 0.00 | 0.00 | 0.00 | 55 | 1014.7 |
| 20260503035249 | 65 | 247 | 0.0 | 0.0 | 0.00 | 0.00 | 0.00 | 55 | 1014.8 |
| 20260503034746 | 66 | 247 | 0.0 | 0.0 | 0.00 | 0.00 | 0.00 | 53 | 1014.7 |
| 20260503034243 | 66 | 245 | 0.0 | 0.9 | 0.00 | 0.00 | 0.00 | 52 | 1014.8 |
| 20260503033741 | 66 | 271 | 0.9 | 0.9 | 0.00 | 0.00 | 0.00 | 52 | 1014.5 |
| 20260503033238 | 66 | 227 | 0.0 | 0.0 | 0.00 | 0.00 | 0.00 | 53 | 1014.5 |
| 20260503032736 | 67 | 241 | 0.0 | 0.9 | 0.00 | 0.00 | 0.00 | 52 | 1014.8 |
| 20260503032235 | 67 | 240 | 0.0 | 0.0 | 0.00 | 0.00 | 0.00 | 52 | 1014.6 |
| 20260503031731 | 67 | 232 | 0.0 | 0.0 | 0.00 | 0.00 | 0.00 | 52 | 1014.3 |
| 20260503031229 | 67 | 233 | 0.0 | 0.0 | 0.00 | 0.00 | 0.00 | 52 | 1014.3 |
| 20260503030725 | 67 | 237 | 0.0 | 0.0 | 0.00 | 0.00 | 0.00 | 51 | 1014.3 |
| 20260503030221 | 67 | 244 | 0.0 | 0.0 | 0.00 | 0.00 | 0.00 | 52 | 1014.2 |
| 20260503025719 | 68 | 231 | 0.0 | 0.0 | 0.00 | 0.00 | 0.00 | 52 | 1014.5 |
| 20260503025216 | 68 | 212 | 0.0 | 0.0 | 0.00 | 0.00 | 0.00 | 52 | 1014.4 |
| 20260503024713 | 68 | 231 | 0.0 | 0.0 | 0.00 | 0.00 | 0.00 | 51 | 1014.2 |
| 20260503024210 | 68 | 117 | 0.9 | 0.9 | 0.00 | 0.00 | 0.00 | 51 | 1014.4 |
| 20260503023707 | 69 | 90 | 0.9 | 1.7 | 0.00 | 0.00 | 0.00 | 50 | 1014.3 |
| 20260503023203 | 69 | 179 | 0.9 | 0.9 | 0.00 | 0.00 | 0.00 | 50 | 1014.2 |
| 20260503022700 | 70 | 229 | 0.0 | 0.9 | 0.00 | 0.00 | 0.00 | 51 | 1014.5 |
| 20260503022159 | 70 | 175 | 0.0 | 0.9 | 0.00 | 0.00 | 0.00 | 51 | 1014.4 |
| 20260503021656 | 70 | 203 | 0.0 | 0.9 | 0.00 | 0.00 | 0.00 | 50 | 1014.3 |
| 20260503021153 | 70 | 254 | 0.0 | 0.0 | 0.00 | 0.00 | 0.00 | 51 | 1014.4 |
| 20260503020650 | 70 | 175 | 0.9 | 1.7 | 0.00 | 0.00 | 0.00 | 50 | 1014.3 |
| 20260503020148 | 71 | 228 | 0.0 | 0.9 | 0.00 | 0.00 | 0.00 | 50 | 1014.4 |
| 20260503015644 | 71 | 246 | 0.9 | 0.9 | 0.00 | 0.00 | 0.00 | 50 | 1014.4 |
| 20260503015141 | 71 | 235 | 1.7 | 1.7 | 0.00 | 0.00 | 0.00 | 50 | 1014.5 |
| 20260503014637 | 71 | 242 | 0.9 | 0.9 | 0.00 | 0.00 | 0.00 | 50 | 1014.4 |
| 20260503014135 | 70 | 272 | 0.0 | 0.9 | 0.00 | 0.00 | 0.00 | 51 | 1014.4 |
| 20260503013632 | 70 | 239 | 0.0 | 0.0 | 0.00 | 0.00 | 0.00 | 52 | 1014.5 |
| 20260503013130 | 70 | 157 | 0.9 | 1.7 | 0.00 | 0.00 | 0.00 | 52 | 1014.5 |
| 20260503012627 | 69 | 259 | 0.0 | 0.0 | 0.00 | 0.00 | 0.00 | 57 | 1014.5 |
| 20260503012124 | 70 | 356 | 0.0 | 0.9 | 0.00 | 0.00 | 0.00 | 57 | 1014.6 |
| 20260503011620 | 70 | 94 | 0.9 | 0.9 | 0.00 | 0.00 | 0.00 | 56 | 1014.7 |
| 20260503011118 | 71 | 72 | 0.9 | 0.9 | 0.00 | 0.00 | 0.00 | 56 | 1014.7 |
| 20260503010614 | 71 | 180 | 0.0 | 0.9 | 0.00 | 0.00 | 0.00 | 54 | 1014.8 |
| 20260503010111 | 71 | 10 | 0.9 | 0.9 | 0.00 | 0.00 | 0.00 | 54 | 1014.7 |
| 20260503005608 | 71 | 241 | 0.9 | 0.9 | 0.00 | 0.00 | 0.00 | 54 | 1014.9 |
| 20260503005105 | 72 | 212 | 0.0 | 0.9 | 0.00 | 0.00 | 0.00 | 54 | 1014.8 |
| 20260503004601 | 73 | 114 | 0.9 | 0.9 | 0.00 | 0.00 | 0.00 | 53 | 1014.8 |
| 20260503004100 | 73 | 205 | 0.0 | 0.0 | 0.00 | 0.00 | 0.00 | 53 | 1014.9 |
| 20260503003556 | 73 | 208 | 0.9 | 2.6 | 0.00 | 0.00 | 0.00 | 50 | 1014.9 |
| 20260503003053 | 72 | 258 | 0.9 | 0.9 | 0.00 | 0.00 | 0.00 | 56 | 1015.0 |
| 20260503002550 | 71 | 94 | 3.5 | 5.2 | 0.00 | 0.00 | 0.00 | 55 | 1015.0 |
| 20260503002047 | 73 | 195 | 0.9 | 0.9 | 0.00 | 0.00 | 0.00 | 54 | 1015.0 |
| 20260503001543 | 73 | 247 | 0.0 | 0.9 | 0.00 | 0.00 | 0.00 | 56 | 1015.0 |
| 20260503001041 | 73 | 281 | 0.0 | 0.0 | 0.00 | 0.00 | 0.00 | 55 | 1015.2 |
| 20260503000538 | 74 | 236 | 0.9 | 1.7 | 0.00 | 0.00 | 0.00 | 53 | 1015.0 |
| 20260503000035 | 74 | 112 | 0.9 | 0.9 | 0.00 | 0.00 | 0.00 | 48 | 1015.2 |
| 20260502235531 | 74 | 279 | 0.0 | 0.9 | 0.00 | 0.00 | 0.00 | 48 | 1015.2 |
| 20260502235030 | 74 | 56 | 1.7 | 4.3 | 0.00 | 0.00 | 0.00 | 47 | 1015.3 |
| 20260502234525 | 75 | 164 | 0.0 | 0.9 | 0.00 | 0.00 | 0.00 | 48 | 1015.3 |
| 20260502234023 | 76 | 65 | 1.7 | 1.7 | 0.00 | 0.00 | 0.00 | 46 | 1015.4 |
| 20260502233518 | 74 | 250 | 0.9 | 0.9 | 0.00 | 0.00 | 0.00 | 48 | 1015.4 |
| 20260502233015 | 74 | 180 | 0.9 | 0.9 | 0.00 | 0.00 | 0.00 | 46 | 1015.5 |
| 20260502232511 | 75 | 137 | 0.9 | 0.9 | 0.00 | 0.00 | 0.00 | 47 | 1015.4 |
| 20260502232009 | 74 | 284 | 0.9 | 1.7 | 0.00 | 0.00 | 0.00 | 49 | 1015.4 |
| 20260502231505 | 75 | 77 | 1.7 | 1.7 | 0.00 | 0.00 | 0.00 | 47 | 1015.4 |
| 20260502231003 | 75 | 107 | 1.7 | 1.7 | 0.00 | 0.00 | 0.00 | 49 | 1015.5 |
| 20260502230501 | 75 | 256 | 0.0 | 0.9 | 0.00 | 0.00 | 0.00 | 47 | 1015.6 |
| 20260502225959 | 75 | 60 | 0.9 | 0.9 | 0.00 | 0.00 | 0.00 | 49 | 1015.7 |
| 20260502225455 | 75 | 67 | 0.0 | 0.9 | 0.00 | 0.00 | 0.00 | 48 | 1015.8 |
| 20260502224952 | 75 | 173 | 1.7 | 1.7 | 0.00 | 0.00 | 0.00 | 46 | 1016.0 |
| 20260502224448 | 75 | 83 | 1.7 | 2.6 | 0.00 | 0.00 | 0.00 | 48 | 1015.8 |
| 20260502223945 | 75 | 66 | 2.6 | 2.6 | 0.00 | 0.00 | 0.00 | 49 | 1016.0 |
| 20260502223443 | 75 | 333 | 0.0 | 0.9 | 0.00 | 0.00 | 0.00 | 49 | 1016.1 |
| 20260502222941 | 75 | 134 | 0.9 | 1.7 | 0.00 | 0.00 | 0.00 | 49 | 1015.8 |
| 20260502222438 | 75 | 111 | 1.7 | 1.7 | 0.00 | 0.00 | 0.00 | 49 | 1016.0 |
| 20260502221934 | 75 | 125 | 0.0 | 0.0 | 0.00 | 0.00 | 0.00 | 51 | 1016.1 |
| 20260502221430 | 75 | 75 | 1.7 | 4.3 | 0.00 | 0.00 | 0.00 | 49 | 1016.2 |
| 20260502220927 | 76 | 242 | 0.0 | 0.0 | 0.00 | 0.00 | 0.00 | 49 | 1016.1 |
| 20260502220423 | 74 | 66 | 1.7 | 2.6 | 0.00 | 0.00 | 0.00 | 52 | 1016.4 |
| 20260502215920 | 75 | 103 | 0.9 | 0.9 | 0.00 | 0.00 | 0.00 | 51 | 1016.5 |
| 20260502215417 | 75 | 229 | 0.0 | 0.0 | 0.00 | 0.00 | 0.00 | 54 | 1016.6 |
| 20260502214914 | 76 | 150 | 0.9 | 0.9 | 0.00 | 0.00 | 0.00 | 54 | 1016.4 |
| 20260502214410 | 74 | 197 | 1.7 | 1.7 | 0.00 | 0.00 | 0.00 | 54 | 1016.7 |
| 20260502213908 | 73 | 66 | 0.9 | 1.7 | 0.00 | 0.00 | 0.00 | 55 | 1016.5 |
| 20260502213405 | 74 | 41 | 0.9 | 0.9 | 0.00 | 0.00 | 0.00 | 55 | 1016.6 |
| 20260502212904 | 74 | 241 | 0.0 | 0.9 | 0.00 | 0.00 | 0.00 | 56 | 1016.7 |
| 20260502212402 | 74 | 130 | 1.7 | 1.7 | 0.00 | 0.00 | 0.00 | 56 | 1016.7 |
| 20260502211859 | 74 | 88 | 0.9 | 0.9 | 0.00 | 0.00 | 0.00 | 56 | 1016.6 |
| 20260502211359 | 74 | 244 | 0.0 | 0.0 | 0.00 | 0.00 | 0.00 | 61 | 1016.8 |
| 20260502210857 | 74 | 247 | 0.0 | 0.9 | 0.00 | 0.00 | 0.00 | 60 | 1016.8 |
| 20260502210354 | 74 | 257 | 0.0 | 0.9 | 0.00 | 0.00 | 0.00 | 63 | 1017.1 |
| 20260502205852 | 74 | 261 | 0.9 | 0.9 | 0.00 | 0.00 | 0.00 | 61 | 1016.9 |
| 20260502205347 | 73 | 252 | 0.0 | 0.9 | 0.00 | 0.00 | 0.00 | 61 | 1017.0 |
| 20260502204844 | 73 | 130 | 0.0 | 0.9 | 0.00 | 0.00 | 0.00 | 62 | 1017.1 |
| 20260502204342 | 73 | 223 | 0.0 | 0.9 | 0.00 | 0.00 | 0.00 | 61 | 1017.0 |
| 20260502203839 | 73 | 245 | 0.0 | 0.9 | 0.00 | 0.00 | 0.00 | 63 | 1017.0 |
| 20260502203337 | 73 | 299 | 0.0 | 0.0 | 0.00 | 0.00 | 0.00 | 65 | 1017.1 |
| 20260502202832 | 73 | 40 | 2.6 | 4.3 | 0.00 | 0.00 | 0.00 | 62 | 1017.3 |
| 20260502202330 | 73 | 195 | 0.9 | 1.7 | 0.00 | 0.00 | 0.00 | 61 | 1017.2 |
| 20260502201827 | 73 | 150 | 0.0 | 0.9 | 0.00 | 0.00 | 0.00 | 63 | 1017.4 |
| 20260502201323 | 73 | 123 | 0.0 | 0.9 | 0.00 | 0.00 | 0.00 | 61 | 1017.5 |
| 20260502200820 | 72 | 104 | 0.9 | 0.9 | 0.00 | 0.00 | 0.00 | 63 | 1017.5 |
| 20260502200316 | 72 | 238 | 0.0 | 0.9 | 0.00 | 0.00 | 0.00 | 65 | 1017.5 |
| 20260502195814 | 72 | 56 | 0.0 | 0.9 | 0.00 | 0.00 | 0.00 | 65 | 1017.5 |
| 20260502195310 | 72 | 220 | 0.9 | 0.9 | 0.00 | 0.00 | 0.00 | 63 | 1017.6 |